This demonstration page uses our WeatherBlox Daily Observations layout. Learn more.

Left ArrowRight Arrow

Hourly Observations for September 29, 2022

Temp ( °F °C ) Dew Point ( °F °C ) Humidity (%) Winds ( mph kmh ) Pressure ( in mb ) Visibility ( mi km ) Precip ( " mm )
12:52 am 00:52 Clear 50 10 37 2.8 61 61 SSE 9 15 30.39 1029 10 16 0.00 0.00
1:52 am 01:52 Clear 50 10 38 3.3 63 63 SSE 10 17 30.38 1029 10 16 0.00 0.00
2:52 am 02:52 Clear 49 9.4 38 3.3 66 66 SSE 12 19 30.38 1029 10 16 0.00 0.00
3:52 am 03:52 Clear 47 8.3 38 3.3 71 71 SSE 8 13 30.37 1029 10 16 0.00 0.00
4:52 am 04:52 Clear 48 8.9 39 3.9 71 71 SSE 9 15 30.37 1029 10 16 0.00 0.00
5:52 am 05:52 Clear 46 7.8 38 3.3 73 73 SSE 8 13 30.39 1029 10 16 0.00 0.00
6:52 am 06:52 Mostly Clear 46 7.8 39 3.9 76 76 SSE 10 17 30.38 1029 10 16 0.00 0.00
7:52 am 07:52 Partly Cloudy 48 8.9 40 4.4 73 73 SSE 10 17 30.39 1029 10 16 0.00 0.00
8:52 am 08:52 Mostly Sunny 51 10.6 40 4.4 65 65 SSE 13 20 30.38 1029 10 16 0.00 0.00
9:52 am 09:52 Mostly Sunny 56 13.3 41 5 57 57 SSE 16 26 30.37 1029 10 16 0.00 0.00
10:52 am 10:52 Mostly Sunny 61 16.1 41 5 48 48 SSE 20 31 30.35 1028 10 16 0.00 0.00
11:52 am 11:52 Mostly Sunny 64 17.8 41 5 43 43 SSE 21 33 30.33 1027 10 16 0.00 0.00
12:52 pm 12:52 Mostly Sunny 69 20.6 41 5 36 36 SE 15 24 30.29 1026 10 16 0.00 0.00
1:52 pm 13:52 Mostly Sunny 71 21.7 41 5 34 34 SSE 21 33 30.26 1025 10 16 0.00 0.00
2:52 pm 14:52 Mostly Sunny 73 22.8 42 5.6 33 33 SE 18 30 30.21 1023 10 16 0.00 0.00
3:52 pm 15:52 Mostly Sunny 74 23.3 42 5.6 32 32 S 17 28 30.19 1022 10 16 0.00 0.00
4:52 pm 16:52 Mostly Sunny 74 23.3 42 5.6 32 32 SE 17 28 30.16 1022 10 16 0.00 0.00
5:52 pm 17:52 Mostly Sunny 72 22.2 42 5.6 34 34 SSE 17 28 30.16 1021 10 16 0.00 0.00
6:52 pm 18:52 Mostly Sunny 68 20 40 4.4 36 36 SE 14 22 30.15 1021 10 16 0.00 0.00
7:52 pm 19:52 Partly Cloudy 65 18.3 40 4.4 40 40 SE 15 24 30.15 1021 10 16 0.00 0.00
8:52 pm 20:52 Partly Cloudy 63 17.2 40 4.4 43 43 SE 17 28 30.16 1021 10 16 0.00 0.00
9:52 pm 21:52 Partly Cloudy 61 16.1 40 4.4 46 46 SSE 16 26 30.16 1021 10 16 0.00 0.00
10:52 pm 22:52 Partly Cloudy 60 15.6 41 5 49 49 SSE 15 24 30.16 1022 10 16 0.00 0.00
11:52 pm 23:52 Mostly Clear 58 14.4 41 5 53 53 SSE 13 20 30.16 1022 10 16 0.00 0.00

Powered by AerisWeather